Probability
0 0 0 0 0 0 0 0 0 0 0 0 0 0 0 0 0 0 0 0 0 0 0 0 0 0 0 0 0 0 0 0 0 0 0 0 0 0 0 0 0 0 0
0 0 0 0 0 0 0 0 0 0 0 0 0 0 0 0 0 0 0 0 0 0 0 0 0 0 0 0 0 0 0 0 0 0 0 0 0 0 0 0 0 0 0
0 0 0 0 0 0 0 0 0 0 0 0 0 0 0 0 0 0 0 0 0 0 0 0 0 0 0 0 0 0 0 0 0 0 0 0 0 0 0 0 0 0 0
0 0 0 0 0 0 0 0 0 0 0 0 0 0 0 0 0 0 0 0 0 0 0 0 0 0 0 0 0 0 0 0 0 0 0 0 0 0 0 0 0 0 0
0 0 0 0 0 0 0 0 0 0 0 0 0 0 0 0 0 0 0 0 0 0 0 0 0 0 0 0 0 0 0 0 0 0 0 0 0 0 0 0 0 0 0
0 0 0 0 0 0 0 0 0 0 0 0 0 0 0 0 0 0 0 0 0 0 0 0 0 0 0 0 0 0 0 0 0 0 0 0 0 0 0 0 0 0 0
0 0 0 0 0 0 0 0 0 0 0 0 0 0 0 0 0 0 0 0 0 0 0 0 0 0 0 0 0 0 0 0 0 0 0 0 0 0 0 0 0 0 0
0 0 0 0 0 0 0 0 0 0 0 0 0 0 0 0 0 0 0 0 0 0 0 0 0 0 0 0 0 0 0 0 0 0 0 0 0 0 0 0 0 0 0
0 0 0 0 0 0 0 0 0 0 0 0 0 0 0 0 0 0 0 0 0 0 0 0 0 0 0 0 0 0 0 0 0 0 0 0 0 0 0 0 0 0 0
0 0 0 0 0 0 0 0 0 0 0 0 0 0 0 0 0 0 0 0 0 0 0 0 0 0 0 0 0 0 0 0 0 0 0 0 0 0 0 0 0 0 0
0 0 0 0 0 0 0 0 0 0 0 0 0 0 0 0 0 0 0 0 0 0 0 0 0 0 0 0 0 0 0 0 0 0 0 0 0 0 0 0 0 0 0
0 0 0 0 0 0 0 0 0 0 0 0 0 0 0 0 0 0 0 0 0 0 0 0 0 0 0 0 0 0 0 0 0 0 0 0 0 0 0 0 0 0 0
0 0 0 0 0 0 0 0 0 0 0 0 0 0 0 0 0 0 0 0 0 0 0 0 0 0 0 0 0 0 0 0 0 0 0 0 0 0 0 0 0 0 0
0 0 0 0 0 0 0 0 0 0 0 0 0 0 0 0 0 0 0 0 0 0 0 0 0 0 0 0 0 0 0 0 0 0 0 0 0 0 0 0 0 0 0
0 0 0 0 0 0 0 0 0 0 0 0 0 0 0 0 0 0 0 0 0 0 0 0 0 0 0 0 0 0 0 0 0 0 0 0 0 0 0 0 0 0 0
0 0 0 0 0 0 0 0 0 0 0 0 0 0 0 0 0 0 0 0 0 0 0 0 0 0 0 0 0 0 0 0 0 0 0 0 0 0 0 0 0 0 0
0 0 0 0 0 0 0 0 0 0 0 0 0 0 0 0 0 0 0 0 0 0 0 0 0 0 0 0 0 0 0 0 0 0 0 0 0 0 0 0 0 0 0
0 0 0 0 0 0 0 0 0 0 0 0 0 0 0 0 0 0 0 0 0 0 0 0 0 0 0 0 0 0 0 0 0 0 0 0 0 0 0 0 0 0 0
0 0 0 0 0 0 0 0 0 0 0 0 0 0 0 0 0 0 0 0 0 0 0 0 0 0 0 0 0 0 0 0 0 0 0 0 0 0 0 0 0 0 0
0 0 0 0 0 0 0 0 0 0 0 0 0 0 0 0 0 0 0 0 0 0 0 0 0 0 0 0 0 0 0 0 0 0 0 0 0 0 0 0 0 0 0
0 0 0 0 0 0 0 0 0 0 0 0 0 0 0 0 0 0 0 0 0 0 0 0 0 0 0 0 0 0 0 0 0 0 0 0 0 0 0 0 0 0 0
0 0 0 0 0 0 0 0 0 0 0 0 0 0 0 0 0 0 0 0 0 0 0 0 0 0 0 0 0 0 0 0 0 0 0 0 0 0 0 0 0 0 0
0 0 0 0 0 0 0 0 0 0 0 0 0 0 0 0 0 0 0 0 0 0 0 0 0 0 0 0 0 0 0 0 0 0 0 0 0 0 0 0 0 0 0
0 0 0 0 0 0 0 0 0 0 0 0 0 0 0 0 0 0 0 0 0 0 0 0 0 0 0 0 0 0 0 0 0 0 0 0 0 0 0 0 0 0 0
0 0 0 0 0 0 0 0 0 0 0 0 0 0 0 0 0 0 0 0 0 0 0 0 0 0 0 0 0 0 0 0 0 0 0 0 0 0 0 0 0 0 0
0 0 0 0 0 0 0 0 0 0 0 0 0 0 0 0 0 0 0 0 0 0 0 0 0 0 0 0 0 0 0 0 0 0 0 0 0 0 0 0 0 0 0
Height
5810 5808 5806 5804 5801 5799 5796 5793 5790 5787 5784 5780 5777 5774 5770 5767 5765 5763 5761 5760 5758 5758 5758 5758 5759 5760 5761 5763 5765 5768 5771 5774 5777 5780 5783 5786 5789 5792 5796 5799 5802 5805 5808
5807 5805 5804 5802 5799 5797 5794 5792 5789 5786 5783 5780 5777 5774 5771 5768 5765 5763 5761 5760 5759 5758 5757 5757 5758 5759 5760 5761 5763 5766 5768 5771 5774 5776 5779 5782 5785 5787 5791 5794 5797 5799 5802
5803 5802 5800 5798 5796 5794 5792 5790 5787 5784 5782 5779 5776 5774 5771 5768 5765 5763 5761 5760 5759 5758 5757 5757 5757 5757 5758 5760 5762 5764 5766 5768 5770 5773 5775 5778 5780 5783 5786 5789 5791 5794 5796
5799 5798 5796 5795 5793 5791 5789 5787 5785 5782 5780 5778 5775 5773 5770 5768 5766 5764 5761 5760 5758 5757 5757 5756 5756 5756 5757 5758 5760 5761 5763 5765 5767 5769 5772 5774 5776 5778 5781 5783 5786 5788 5790
5795 5793 5792 5791 5789 5787 5786 5784 5782 5780 5778 5776 5774 5772 5769 5767 5765 5763 5761 5760 5758 5757 5757 5756 5756 5756 5756 5757 5758 5759 5761 5763 5764 5766 5768 5770 5772 5774 5776 5778 5780 5782 5784
5789 5788 5787 5785 5784 5783 5781 5780 5778 5777 5775 5773 5771 5769 5768 5766 5764 5762 5761 5759 5758 5757 5756 5755 5755 5755 5755 5755 5756 5757 5759 5760 5762 5763 5765 5766 5768 5769 5771 5773 5775 5777 5778
5783 5782 5781 5779 5778 5777 5776 5775 5774 5773 5771 5770 5768 5766 5765 5764 5762 5761 5759 5758 5757 5756 5755 5754 5754 5754 5754 5754 5754 5755 5756 5757 5759 5760 5761 5763 5764 5765 5767 5768 5770 5771 5773
5776 5775 5774 5773 5772 5771 5770 5770 5769 5767 5766 5765 5764 5763 5762 5760 5759 5758 5757 5756 5755 5754 5754 5753 5753 5752 5752 5752 5753 5753 5754 5754 5755 5756 5758 5759 5760 5761 5762 5763 5764 5765 5766
5768 5767 5766 5765 5764 5764 5763 5763 5762 5761 5761 5760 5759 5758 5757 5757 5756 5755 5754 5754 5753 5752 5752 5751 5751 5751 5750 5750 5750 5751 5751 5752 5752 5753 5754 5755 5756 5757 5758 5759 5759 5760 5760
5758 5758 5757 5756 5756 5756 5755 5755 5754 5754 5754 5753 5753 5753 5752 5752 5751 5751 5750 5750 5750 5749 5749 5748 5748 5748 5748 5748 5748 5748 5748 5749 5749 5749 5750 5751 5751 5752 5753 5753 5754 5754 5755
5748 5747 5747 5746 5746 5746 5746 5746 5746 5746 5746 5746 5746 5746 5746 5746 5746 5746 5745 5745 5745 5745 5745 5745 5744 5744 5744 5744 5745 5745 5745 5745 5745 5745 5746 5746 5747 5747 5747 5748 5748 5749 5749
5735 5735 5735 5735 5735 5735 5735 5736 5736 5736 5737 5738 5738 5739 5739 5739 5739 5739 5739 5740 5740 5740 5740 5740 5740 5740 5740 5740 5740 5741 5741 5741 5741 5741 5741 5742 5742 5742 5742 5742 5743 5743 5743
5721 5721 5721 5722 5722 5723 5723 5724 5725 5726 5727 5728 5729 5730 5731 5731 5732 5732 5732 5733 5733 5734 5734 5734 5734 5734 5735 5735 5735 5735 5735 5736 5736 5736 5736 5736 5736 5737 5737 5737 5737 5737 5736
5706 5706 5706 5707 5708 5709 5710 5711 5712 5714 5716 5717 5719 5720 5721 5722 5723 5724 5724 5725 5726 5727 5727 5728 5728 5728 5729 5729 5729 5729 5729 5730 5730 5730 5730 5730 5730 5730 5730 5730 5730 5730 5729
5690 5689 5690 5690 5691 5693 5695 5697 5699 5701 5703 5705 5707 5709 5710 5712 5714 5715 5715 5716 5717 5718 5719 5720 5721 5722 5722 5723 5723 5723 5723 5723 5723 5723 5723 5723 5723 5723 5723 5723 5722 5722 5722
5672 5672 5673 5673 5675 5676 5679 5681 5684 5687 5689 5692 5694 5697 5699 5701 5702 5704 5706 5707 5708 5709 5711 5712 5713 5714 5715 5715 5716 5716 5716 5716 5716 5716 5716 5716 5716 5716 5716 5715 5715 5714 5713
5654 5655 5656 5657 5658 5660 5662 5664 5668 5671 5674 5677 5681 5684 5686 5689 5691 5693 5695 5697 5698 5700 5702 5703 5704 5706 5706 5707 5708 5708 5708 5708 5708 5708 5708 5708 5708 5708 5708 5707 5707 5706 5705
5637 5637 5639 5640 5641 5643 5645 5648 5651 5654 5658 5662 5666 5669 5673 5676 5678 5681 5683 5686 5688 5690 5692 5694 5695 5696 5697 5698 5699 5700 5700 5700 5700 5700 5700 5700 5700 5700 5699 5699 5698 5697 5697
5620 5620 5621 5622 5624 5626 5629 5631 5634 5638 5641 5646 5650 5654 5658 5661 5665 5668 5671 5674 5677 5680 5682 5684 5685 5687 5688 5689 5690 5691 5691 5692 5692 5692 5691 5691 5691 5691 5691 5690 5689 5688 5687
5603 5603 5603 5605 5606 5609 5611 5614 5617 5621 5624 5629 5634 5639 5642 5646 5650 5654 5658 5662 5665 5668 5671 5673 5675 5677 5678 5679 5681 5682 5682 5683 5683 5683 5683 5683 5682 5682 5681 5681 5680 5679 5678
5586 5586 5586 5587 5589 5591 5594 5597 5600 5603 5607 5612 5617 5622 5626 5631 5636 5640 5645 5649 5653 5656 5659 5662 5664 5666 5668 5669 5671 5672 5673 5673 5674 5674 5674 5674 5673 5673 5672 5671 5670 5669 5668
5569 5569 5569 5570 5571 5573 5576 5579 5582 5586 5590 5595 5600 5605 5610 5615 5621 5626 5631 5635 5639 5643 5647 5650 5652 5655 5657 5659 5660 5662 5663 5663 5664 5664 5664 5664 5664 5663 5662 5661 5660 5659 5657
5553 5552 5552 5553 5554 5556 5558 5562 5565 5569 5573 5578 5583 5589 5594 5600 5606 5611 5616 5621 5626 5630 5634 5637 5640 5643 5646 5648 5650 5651 5652 5653 5654 5654 5654 5654 5654 5653 5652 5651 5650 5648 5647
5537 5536 5536 5537 5538 5539 5542 5545 5548 5552 5557 5562 5567 5573 5579 5585 5590 5596 5602 5607 5612 5616 5621 5625 5628 5631 5634 5636 5638 5640 5642 5643 5643 5644 5644 5644 5643 5643 5642 5641 5639 5638 5636
5521 5520 5520 5521 5522 5524 5525 5528 5532 5536 5540 5546 5551 5557 5563 5569 5575 5581 5587 5592 5598 5603 5607 5612 5616 5619 5622 5625 5627 5629 5630 5631 5632 5633 5633 5633 5633 5632 5631 5630 5629 5627 5625
5506 5505 5505 5505 5506 5508 5510 5512 5516 5520 5525 5530 5536 5542 5548 5554 5560 5566 5572 5578 5584 5590 5594 5599 5603 5607 5610 5613 5615 5617 5619 5620 5621 5622 5622 5622 5622 5621 5620 5619 5618 5616 5614
Wind_Speed
13 13 14 14 14 14 14 15 15 14 14 14 14 13 13 11 10 8 7 5 4 2 2 4 6 8 10 12 14 16 17 18 19 21 23 23 24 26 27 26 26 27 27
14 14 14 14 14 14 14 14 14 14 14 14 13 12 12 11 10 9 7 6 4 2 2 4 5 7 8 10 12 14 15 15 17 19 20 22 23 24 25 25 25 26 25
16 16 15 15 15 15 14 14 13 13 13 13 13 12 11 11 10 9 8 6 5 3 2 3 4 5 8 9 11 12 14 14 15 17 18 20 21 22 23 24 25 25 25
18 18 17 17 16 15 15 15 14 13 13 13 12 12 11 10 9 8 7 6 5 4 3 2 3 4 6 8 9 10 12 13 14 16 17 18 19 20 21 22 24 24 25
19 19 19 19 18 17 16 16 15 14 13 13 12 12 11 10 9 8 7 6 5 4 3 3 3 4 5 7 9 9 11 12 13 14 15 16 17 19 20 21 21 22 24
21 21 21 20 19 19 18 17 16 15 14 14 13 12 11 10 9 8 7 6 5 4 3 3 3 4 5 7 8 9 10 12 13 13 14 16 17 18 19 20 20 21 21
23 23 23 22 21 21 20 19 18 17 16 15 14 13 12 11 10 8 7 7 6 5 4 4 4 4 5 6 7 9 10 11 12 13 13 14 15 16 17 19 20 21 21
26 26 25 25 24 23 22 21 20 19 18 17 16 15 14 13 11 10 9 7 7 6 5 5 5 5 6 6 7 8 9 10 11 12 12 13 15 16 16 18 19 21 21
29 29 28 28 27 26 25 24 23 22 21 20 18 17 16 15 13 12 11 10 9 8 7 7 6 6 7 7 8 8 9 10 11 12 14 14 15 16 17 18 18 19 20
32 32 31 30 30 29 28 27 25 25 24 22 21 20 18 17 16 15 13 12 11 11 10 10 9 9 9 9 9 9 10 11 12 12 13 14 15 16 17 17 18 18 19
35 34 34 33 32 32 31 30 29 27 26 25 24 22 21 20 19 18 17 16 14 13 13 12 12 11 11 10 11 11 12 12 13 13 14 14 15 16 17 17 18 18 19
39 37 36 36 36 34 34 33 32 31 29 28 26 25 24 23 22 20 20 19 18 17 16 15 15 14 14 13 13 13 14 14 14 15 15 16 16 16 17 18 19 20 21
41 40 40 39 39 38 37 36 35 34 32 31 29 28 27 26 24 23 22 21 21 20 19 18 17 17 16 16 16 16 16 16 16 17 17 17 18 18 18 19 20 21 22
44 43 42 42 42 41 40 39 38 37 35 34 32 31 30 29 27 26 25 24 23 23 22 21 20 19 19 18 18 18 18 19 18 19 19 19 20 20 21 21 22 22 24
45 45 44 44 44 43 42 42 41 39 38 37 35 34 32 31 30 29 28 27 26 25 24 23 23 22 21 20 20 20 20 20 20 20 20 20 21 21 22 22 23 24 24
46 45 45 44 44 44 44 44 44 42 41 40 39 37 36 34 33 32 31 30 29 28 27 26 25 24 23 22 22 21 21 21 21 21 22 22 22 22 23 24 24 25 26
46 45 44 44 44 44 44 45 45 45 44 43 41 40 39 37 36 35 34 32 31 30 29 28 27 26 25 25 24 23 23 23 23 23 23 23 23 24 24 25 25 26 26
46 45 45 44 44 44 45 46 46 46 46 45 44 43 42 41 39 38 37 35 34 33 31 30 29 28 27 26 26 25 25 24 24 24 24 25 25 25 25 26 26 26 27
46 45 45 45 45 45 45 46 47 47 47 47 46 46 45 44 42 41 40 38 36 35 33 32 31 30 29 28 28 27 26 26 26 25 25 26 26 26 26 27 27 28 29
46 46 46 46 46 46 46 46 47 48 48 48 48 48 48 47 45 44 42 40 39 37 35 34 33 32 31 30 29 28 28 27 27 27 26 26 27 27 28 28 28 29 30
45 45 45 45 46 46 46 46 47 48 48 48 48 48 49 49 47 46 44 42 41 39 37 36 35 34 33 32 31 30 30 29 28 28 28 28 28 28 28 29 30 30 31
46 45 45 45 45 45 46 47 47 48 48 48 48 49 49 49 48 47 45 44 43 41 39 38 37 36 35 34 33 32 31 30 30 30 29 29 29 29 29 30 31 32 32
45 44 44 44 45 45 45 47 47 48 48 48 49 48 49 49 49 48 47 45 44 43 41 40 39 37 36 35 34 33 32 31 31 30 30 30 30 30 31 31 32 32 33
43 43 43 42 43 44 44 45 47 48 49 48 49 49 49 49 49 49 48 47 45 44 43 41 39 38 37 35 34 33 33 32 32 31 31 31 31 31 32 32 32 33 33
43 42 42 42 42 43 43 44 45 47 49 48 48 48 48 48 49 49 49 48 46 44 43 41 40 39 38 37 35 34 34 33 32 32 32 33 33 33 33 33 33 34 34
42 42 42 41 41 41 42 42 44 45 47 48 48 48 48 47 47 48 49 48 46 45 44 43 41 40 38 37 36 35 34 33 33 33 33 34 33 33 33 34 35 35 36
Wind_Direction
302 307 313 319 325 329 332 335 339 342 345 348 351 354 357 358 358 356 353 350 342 302 249 231 229 226 221 221 218 220 223 225 227 226 227 228 229 230 229 232 234 238 241
296 300 305 310 315 319 324 329 333 338 341 343 346 350 354 356 355 354 352 350 344 323 271 240 233 225 223 220 218 220 223 226 227 228 230 229 229 230 231 233 235 239 241
292 295 297 301 305 309 314 320 324 329 333 337 340 343 347 352 353 358 356 351 346 335 309 268 247 234 227 221 221 222 225 227 228 229 231 231 230 230 232 235 236 239 243
291 291 292 293 296 300 305 310 314 318 322 326 330 334 338 344 350 353 354 350 346 340 329 301 268 246 232 227 226 226 226 226 226 228 230 231 231 230 233 237 240 242 245
290 289 289 290 291 293 296 299 303 308 311 314 318 322 327 331 334 339 344 341 340 338 328 308 283 253 236 229 227 227 227 227 228 228 230 230 233 233 235 238 242 244 247
287 288 287 286 287 288 289 291 293 296 300 302 305 308 311 316 320 324 328 328 323 322 313 298 284 265 243 237 233 231 230 230 232 231 232 235 238 237 239 239 241 245 248
282 284 284 283 283 283 284 284 285 287 290 292 293 295 297 299 302 306 311 312 307 305 303 294 289 275 259 246 239 236 233 236 235 236 239 240 241 241 242 243 246 249 251
279 279 280 280 280 280 280 279 279 280 282 284 284 285 285 287 289 290 292 295 294 288 287 286 278 273 268 262 253 247 241 239 241 244 244 245 244 246 249 250 252 253 253
277 276 276 277 276 276 276 276 275 274 275 277 278 278 277 277 278 280 280 279 279 278 277 274 271 266 264 261 255 253 251 250 250 250 252 252 252 252 253 255 256 255 256
277 275 274 274 274 274 273 272 271 270 270 271 272 272 272 271 271 271 271 270 270 269 268 266 264 263 262 260 258 258 258 256 256 255 256 257 256 255 254 256 259 258 259
277 275 273 271 271 270 270 270 268 267 266 267 268 267 267 266 266 265 265 265 265 265 264 263 262 260 260 259 259 259 260 260 261 261 260 260 259 259 258 259 261 263 264
276 274 271 270 269 268 267 267 266 265 263 263 263 264 264 263 262 262 262 261 262 262 262 262 261 261 261 261 261 262 263 264 263 264 263 262 262 263 264 264 264 265 267
276 273 270 267 266 265 265 264 263 262 261 260 260 260 261 261 260 260 260 259 260 260 260 260 260 261 261 262 262 263 264 266 265 265 264 264 265 266 268 269 269 269 269
276 273 271 267 265 264 262 261 261 260 259 258 257 257 258 258 258 258 258 258 257 258 258 258 259 260 261 262 263 264 265 266 267 267 267 267 268 269 270 272 273 273 272
276 274 271 268 265 263 261 260 258 258 257 256 256 255 254 255 256 256 256 256 256 256 256 256 258 259 260 261 263 264 265 266 267 268 268 269 270 271 272 273 274 275 275
276 274 271 268 265 262 259 257 256 255 254 253 253 253 252 252 252 253 253 254 254 255 255 256 257 258 260 261 263 265 265 266 267 268 269 271 271 273 273 274 276 277 277
275 272 270 268 265 262 258 256 254 253 252 252 251 251 251 250 251 252 252 253 253 254 254 255 256 257 259 260 262 264 266 267 268 269 270 271 272 274 275 275 276 277 278
275 272 269 267 263 261 258 255 254 252 250 249 249 249 249 249 249 249 250 251 252 253 254 254 255 257 258 260 262 264 266 267 268 269 270 271 272 274 276 276 277 278 280
274 271 268 266 262 259 257 255 253 252 250 248 246 246 247 247 247 247 248 250 251 252 253 253 254 256 257 259 261 263 265 267 268 269 271 271 272 274 276 277 278 279 281
274 270 267 265 261 258 256 254 253 252 251 248 246 244 245 245 246 246 247 248 249 250 251 252 253 255 256 258 259 262 264 266 268 269 271 272 273 275 276 278 279 280 282
275 270 267 265 262 259 256 254 252 250 249 247 244 243 243 244 244 245 245 246 247 249 250 251 252 254 255 257 259 261 262 264 266 269 271 273 274 276 277 279 280 282 283
277 272 268 266 263 259 256 253 251 249 247 246 243 242 242 242 242 243 244 245 246 247 249 251 252 253 255 256 258 260 262 264 266 269 271 273 275 277 278 280 282 283 284
277 274 270 266 264 261 256 252 250 248 246 245 242 240 241 241 241 241 242 244 245 246 248 250 251 253 254 256 258 260 262 264 266 268 271 273 276 278 280 282 283 284 285
277 274 270 266 264 261 257 253 250 247 246 245 242 239 239 240 240 239 240 241 243 245 246 248 250 252 253 255 257 259 261 263 265 268 271 273 276 279 280 282 284 285 287
277 275 272 268 265 262 259 255 250 247 245 244 242 239 239 238 239 238 239 240 241 243 245 246 248 250 252 254 256 258 260 262 265 268 271 274 277 279 281 283 284 286 288
278 275 272 269 265 261 258 255 252 247 245 243 241 239 238 238 238 237 237 238 239 240 242 244 246 248 250 253 256 258 260 262 266 269 272 274 277 279 281 283 285 287 289